Theta_e
305 310 312 311 307 306 309 311 310 311 313 313 312 314 315 313 325 321 316 319 322 323 323 323 323 323 323 322 322 321 320 321 321 321 321 322 325 326 328 330 331 333 337 339 338 337 337 336 336
308 311 313 304 308 308 305 307 309 310 314 309 310 312 313 315 311 312 317 319 321 322 321 320 320 320 320 319 316 312 312 312 313 314 315 315 317 317 317 322 329 330 331 334 337 337 337 337 338
310 311 309 309 304 307 307 308 312 314 312 312 311 308 309 311 309 315 315 319 319 319 318 318 318 318 317 317 315 313 311 310 310 309 308 310 313 313 312 312 314 323 329 331 333 334 334 335 338
308 307 301 310 311 310 307 308 310 312 312 310 310 312 306 307 310 314 315 318 316 315 315 316 316 316 315 315 314 312 309 309 307 306 310 312 312 313 312 311 307 308 314 321 326 328 332 334 334
306 301 304 307 307 309 306 306 306 310 310 311 310 310 309 308 310 312 317 315 312 312 313 314 314 313 313 312 310 310 308 308 307 305 308 308 308 304 305 305 310 312 311 309 314 319 325 327 329
302 300 305 306 305 306 304 304 304 306 306 308 310 307 307 305 309 312 315 313 312 310 310 311 310 308 307 305 305 306 307 307 303 302 301 299 300 300 300 301 306 311 311 312 310 311 311 312 318
303 300 303 304 304 306 306 302 305 305 305 306 306 310 305 306 309 312 312 312 310 308 306 306 303 301 300 300 300 304 306 304 300 298 298 298 298 298 298 298 305 308 308 310 311 309 307 306 305
299 301 306 304 306 307 304 303 304 304 305 303 304 307 308 305 308 310 310 309 308 305 302 301 300 300 299 299 299 302 302 299 298 298 298 299 299 299 299 299 299 302 303 306 307 306 304 301 300
299 302 303 305 304 306 302 304 303 303 304 304 304 303 303 307 306 306 305 304 303 302 302 301 300 300 299 298 298 298 298 298 298 298 298 298 298 298 298 298 298 298 299 299 303 303 300 299 299
301 300 303 302 303 303 304 303 302 303 303 303 303 303 303 306 303 300 300 300 301 301 301 301 300 299 298 298 298 298 298 298 298 297 297 297 297 297 297 297 297 297 297 298 298 299 299 299 300
300 301 301 304 304 304 304 303 302 302 302 301 302 302 301 303 301 301 300 301 301 302 301 300 300 299 298 298 298 298 297 297 297 297 297 297 297 297 297 296 296 296 296 297 298 298 299 299 299
304 302 302 304 304 304 304 303 303 301 301 302 301 302 301 301 301 301 301 301 301 301 301 300 300 299 298 298 297 297 297 296 296 296 296 296 296 296 296 296 295 295 295 296 297 297 298 298 298
303 304 304 304 303 303 303 302 302 301 300 299 298 300 301 301 302 302 302 301 301 301 300 300 299 298 298 297 297 296 296 295 295 295 295 295 295 295 294 294 294 294 294 294 295 296 296 297 297
304 304 303 302 303 303 303 302 301 302 300 300 300 299 298 300 301 301 301 302 302 301 301 299 299 298 297 296 296 295 295 295 294 294 294 293 294 293 293 293 293 293 293 294 295 295 296 297 297
303 304 303 304 303 303 301 304 301 301 300 301 301 297 297 297 300 301 302 302 303 302 301 299 298 297 297 296 295 295 294 294 293 293 293 293 293 292 292 292 292 292 293 294 294 295 295 296 297
304 304 307 306 303 302 303 306 305 302 301 301 299 297 297 297 296 298 300 302 302 302 301 298 297 297 296 295 295 294 293 293 293 293 292 292 291 291 291 291 291 291 292 293 293 293 294 294 295
306 308 305 306 303 302 303 304 304 300 299 299 298 294 294 294 294 294 297 300 302 302 300 297 296 296 295 294 294 293 292 292 292 292 291 290 290 290 290 290 290 290 291 291 291 291 292 293 294
309 307 306 308 304 303 303 301 300 300 299 298 295 293 292 292 291 292 294 297 298 299 298 296 295 295 294 293 293 292 291 291 291 290 290 290 290 290 290 290 289 289 290 290 290 291 292 293 293
306 307 307 305 302 304 302 301 300 299 296 296 295 294 293 292 291 292 293 294 295 295 295 295 294 293 293 292 291 291 290 290 290 289 289 289 289 289 289 289 289 289 289 289 289 290 291 291 292
305 306 305 303 303 303 302 303 301 298 297 297 296 295 294 294 292 292 293 294 294 294 294 293 293 292 291 291 290 289 289 288 288 288 288 288 288 288 288 288 288 288 288 288 288 289 290 291 291
304 305 304 305 302 302 301 301 301 299 297 296 295 294 294 294 294 292 292 292 292 292 292 292 291 290 290 289 289 288 287 287 287 287 287 287 287 287 287 287 287 287 287 287 287 288 288 289 288
307 303 303 303 301 306 300 302 301 299 298 298 296 294 294 293 293 292 292 291 291 291 291 290 290 289 289 288 288 287 286 286 286 286 286 286 286 286 286 286 286 286 286 286 286 287 287 288 289
305 301 302 302 300 297 302 296 300 298 299 297 295 294 293 293 291 290 290 291 291 291 290 289 289 289 288 287 286 286 285 285 285 285 285 285 285 285 285 285 285 285 285 285 285 285 286 286 287
301 303 302 300 298 297 298 301 302 298 297 297 295 294 293 291 291 290 291 291 291 290 290 289 288 288 287 286 286 285 285 284 284 284 284 284 285 285 284 284 284 284 284 284 284 285 285 285 285
302 305 302 298 296 302 298 301 303 298 295 295 294 294 291 290 290 289 289 289 290 290 289 288 288 287 286 285 285 284 284 284 284 283 283 283 283 283 283 283 283 283 283 283 284 284 284 284 284
304 304 305 300 298 300 300 299 303 293 286 282 285 282 290 291 289 288 288 289 289 289 288 288 287 286 285 284 284 284 283 283 283 283 283 283 282 282 282 282 282 282 283 283 283 283 284 284 284
304 305 300 296 290 298 297 298 298 296 291 288 286 293 292 290 287 286 286 288 288 288 287 286 286 285 284 284 283 283 283 282 282 282 282 282 282 281 281 281 282 282 283 283 283 283 283 283 283
302 300 304 296 299 300 296 295 299 294 290 290 289 291 290 289 287 285 285 286 287 287 286 286 285 284 284 283 282 282 281 281 281 281 281 281 281 281 281 281 282 282 282 283 283 283 283 282 282
301 301 300 301 295 294 292 296 288 292 289 290 287 290 286 285 284 283 283 285 285 286 285 285 284 284 282 281 281 281 281 281 280 280 281 281 281 281 281 281 282 282 283 282 282 283 283 282 282
297 297 299 301 296 294 290 297 282 283 285 285 288 291 285 284 282 281 282 283 284 284 284 284 284 283 282 281 282 282 281 280 280 280 280 280 280 281 281 281 282 282 282 282 283 283 283 282 281
Wind_Speed
3 2 2 4 3 4 3 6 2 3 2 1 2 2 3 2 3 4 7 7 20 20 17 14 11 11 11 10 8 8 9 9 10 11 11 12 10 10 10 8 7 6 9 11 6 1 5 7 9
2 2 3 2 4 2 5 4 5 5 2 7 5 2 1 2 2 4 11 14 20 19 17 15 11 9 9 10 9 8 8 8 9 10 11 11 11 11 10 11 7 7 5 7 6 8 1 7 9
3 3 3 4 3 5 5 4 4 2 1 4 4 3 4 2 2 13 3 23 20 19 17 14 11 10 9 9 9 9 8 8 9 10 10 11 11 10 11 10 9 9 7 5 3 5 6 3 2
3 4 4 3 5 6 5 3 3 2 3 1 2 1 1 2 2 11 17 25 21 19 16 12 11 10 9 9 9 8 8 9 10 10 11 12 12 12 12 10 10 9 9 8 6 6 8 9 8
4 3 3 1 5 5 6 4 4 5 2 2 2 2 2 1 5 15 26 25 22 19 16 13 10 9 9 8 7 8 8 9 9 10 9 10 10 11 11 11 11 12 10 9 9 8 9 8 8
4 3 2 4 6 5 6 4 3 3 1 1 1 4 3 2 12 24 26 24 19 19 17 14 10 9 7 6 6 7 8 9 9 9 9 8 9 10 10 9 11 12 12 12 10 10 9 9 9
5 4 4 3 5 5 4 5 2 1 1 2 3 2 1 2 14 26 24 21 18 16 15 12 9 7 5 4 5 7 8 8 8 6 6 7 7 7 8 8 11 12 12 12 11 10 10 10 10
5 4 2 5 4 5 2 4 1 1 2 2 6 4 4 5 21 23 22 20 18 16 15 13 9 6 4 4 6 6 6 6 5 5 6 6 7 8 8 8 9 10 10 11 11 11 11 11 10
4 3 3 5 6 4 3 3 4 1 1 3 2 2 2 22 25 23 20 18 17 16 15 13 10 8 6 4 4 4 4 5 5 6 7 7 8 9 9 9 9 9 9 9 10 11 11 12 12
4 4 9 4 2 3 1 1 3 4 1 3 4 1 3 29 28 24 22 22 21 19 16 13 11 9 8 6 4 3 2 1 3 5 6 7 9 10 10 11 11 10 10 10 10 10 11 13 13
5 6 4 3 2 1 2 2 2 3 3 8 5 3 6 9 16 16 18 24 26 20 18 16 12 10 9 7 5 3 1 0 2 4 6 8 9 10 11 11 12 12 11 11 11 12 12 13 14
3 7 4 2 2 1 3 1 3 7 7 1 3 1 6 10 11 19 23 26 24 23 19 16 14 12 10 8 6 4 2 2 3 5 7 9 10 11 12 13 14 13 13 13 13 13 13 14 13
3 2 2 3 3 5 2 7 6 9 9 7 8 6 9 9 14 19 20 23 24 24 22 19 16 13 11 9 7 5 4 3 4 5 7 9 10 11 12 13 14 14 13 13 13 13 13 13 14
1 3 6 5 4 4 4 3 5 4 3 6 3 4 7 9 15 11 16 24 28 28 25 21 18 14 11 10 7 5 4 4 5 7 7 8 9 11 13 14 13 12 13 13 13 14 14 13 15
0 5 6 5 2 6 6 6 8 8 5 5 3 6 5 7 7 20 27 27 29 28 25 24 20 16 13 10 8 6 5 5 7 7 7 7 9 11 13 14 13 12 12 11 12 12 13 14 14
1 2 3 0 4 2 3 7 4 2 4 6 8 8 8 6 8 12 19 24 24 27 26 25 21 17 13 10 8 7 6 6 7 7 7 8 9 11 12 11 10 11 10 11 13 14 16 15 16
2 4 5 6 1 3 3 5 4 6 8 10 9 8 7 7 9 16 10 19 23 26 26 25 20 15 11 8 7 7 7 7 6 6 8 9 9 10 9 9 9 10 11 12 14 13 14 16 17
7 5 5 5 1 0 3 9 9 7 8 8 6 6 6 6 7 12 6 7 17 21 25 22 17 12 9 7 6 6 6 7 7 7 8 9 8 7 7 7 9 10 11 12 13 12 12 13 17
5 5 5 2 1 2 6 7 10 6 4 5 5 5 5 5 5 13 14 12 16 18 19 15 13 9 7 6 6 6 6 6 6 7 7 6 5 5 7 9 10 9 9 11 11 12 14 12 20
3 4 5 2 2 0 4 11 7 1 1 2 2 2 2 1 4 7 10 10 8 11 9 8 7 6 6 5 5 4 5 6 8 4 2 4 6 7 8 9 8 9 10 10 8 10 12 7 17
5 5 4 3 3 1 5 7 3 2 1 2 1 1 1 1 1 1 2 2 4 5 6 6 6 6 5 5 6 7 7 7 7 7 7 7 7 7 7 7 7 9 8 8 8 8 10 10 11
5 6 5 5 3 4 2 5 5 5 5 4 4 1 1 2 1 1 2 3 5 6 7 7 8 7 7 7 8 8 7 7 6 7 8 8 8 6 7 7 8 7 6 6 7 7 7 6 7
4 5 5 4 4 4 1 2 6 3 5 6 6 6 4 3 4 6 6 8 7 8 8 8 9 9 8 8 8 8 8 8 8 9 9 8 6 6 7 7 6 7 7 6 5 7 6 6 7
9 6 6 4 3 1 4 4 4 5 6 4 4 5 3 4 5 5 7 7 7 7 9 10 10 10 9 8 8 9 9 9 9 9 9 7 6 6 7 8 7 6 6 6 6 6 7 7 7
3 5 2 3 2 6 1 3 8 5 5 5 5 2 4 5 5 6 6 6 9 10 11 12 11 11 9 9 10 10 9 9 9 9 9 8 8 8 8 8 6 6 8 8 7 8 9 9 10
6 5 5 7 4 3 1 6 6 6 2 3 4 4 4 5 5 6 7 7 8 7 8 10 10 10 10 10 11 11 10 11 11 11 10 9 9 9 8 7 7 8 8 7 8 9 11 11 14
6 4 3 7 1 3 3 6 6 5 1 2 2 1 4 6 6 7 8 6 7 8 9 10 11 11 12 12 12 12 13 12 11 10 11 10 10 9 7 7 10 9 9 9 10 11 12 12 13
2 4 3 2 3 4 4 5 5 5 6 3 1 2 5 5 6 6 7 8 7 8 8 9 10 11 11 12 13 12 12 11 12 11 11 10 9 8 8 9 10 10 10 9 10 10 11 13 15
3 2 2 3 3 5 1 6 6 8 8 8 5 4 4 5 5 5 8 9 9 8 10 11 12 13 14 12 11 11 11 11 11 11 10 9 9 9 10 10 10 10 9 8 8 9 10 11 13
1 4 4 4 5 1 3 6 2 4 6 5 5 4 3 3 4 5 8 9 10 9 9 11 11 13 11 10 11 11 10 10 10 9 9 9 10 10 11 11 10 9 8 6 8 8 8 10 14
Wind_Direction
326 340 106 48 64 61 262 256 255 249 209 219 22 190 181 87 171 203 153 147 157 157 157 147 136 129 122 110 117 108 80 67 62 58 57 54 52 44 46 44 48 51 47 46 52 235 259 286 273
17 93 65 79 101 92 266 263 246 234 185 122 114 68 45 251 85 114 134 163 162 160 160 149 132 120 112 110 108 100 85 68 57 52 51 52 51 50 47 40 28 21 27 33 47 35 253 273 291
120 61 87 105 126 189 222 230 253 266 282 199 127 52 148 193 142 165 191 166 164 161 160 148 130 123 112 97 96 89 78 66 55 46 40 39 38 37 37 37 32 29 5 351 330 320 326 346 279
158 32 36 101 229 252 219 220 222 297 305 249 116 139 325 237 194 173 165 166 166 160 158 142 130 120 109 98 87 81 71 62 52 47 45 44 36 33 33 28 22 16 17 9 331 303 271 289 296
60 57 77 250 255 263 251 250 206 205 248 211 187 209 213 60 169 165 164 169 169 160 159 149 130 118 110 97 89 78 69 64 51 50 49 40 32 26 23 24 24 20 12 3 355 337 297 297 298
49 101 84 229 247 256 272 274 187 212 204 5 122 143 216 273 163 163 167 169 175 170 167 164 148 136 125 110 93 82 72 67 61 53 47 39 25 23 21 20 17 18 15 7 353 355 346 337 301
123 98 209 219 256 292 242 317 145 170 182 234 150 201 268 220 178 165 167 170 171 174 176 175 171 164 158 138 99 88 84 79 62 54 42 25 17 10 4 6 18 15 6 7 4 343 328 317 303
107 98 210 243 215 258 327 335 125 180 261 315 163 225 259 190 167 164 168 173 176 177 181 181 180 171 139 118 113 101 89 80 62 48 38 20 16 7 1 356 360 357 358 359 358 345 333 323 312
129 75 222 246 169 242 352 18 338 307 279 329 256 177 337 157 160 162 166 174 179 181 185 185 186 182 174 158 134 117 91 73 49 38 31 25 18 10 4 355 346 343 342 340 341 339 326 316 313
121 156 217 217 227 212 251 23 315 339 359 284 280 121 121 161 166 166 176 181 186 186 185 189 192 188 189 184 183 174 138 78 34 27 20 11 6 2 360 353 348 347 333 328 323 322 319 318 314
171 202 215 245 227 244 251 242 213 259 268 225 241 223 129 160 180 184 192 195 194 193 194 190 195 196 199 203 200 202 198 1 4 359 354 351 349 347 346 345 342 341 335 329 319 313 315 317 316
191 233 215 238 148 229 245 225 247 223 231 117 114 176 171 184 193 198 201 202 196 197 198 197 199 203 202 209 209 216 232 275 322 334 336 336 337 337 338 339 341 340 336 332 328 325 322 320 318
249 268 223 268 277 254 293 245 243 261 258 271 273 206 200 204 211 215 212 210 202 202 202 201 201 202 206 210 215 224 243 279 310 323 328 329 331 334 336 336 336 334 330 329 330 329 326 324 322
269 280 278 277 239 256 220 241 135 276 52 322 0 250 247 229 220 211 210 211 207 208 206 199 198 201 205 207 214 229 254 285 309 319 325 329 330 332 331 333 334 331 328 329 329 333 331 326 326
296 313 320 243 204 215 163 281 230 250 328 301 349 3 335 270 251 223 228 219 213 212 205 198 194 196 204 211 217 228 251 276 295 307 316 321 327 331 330 330 330 330 332 330 327 328 328 328 330
81 53 327 248 140 223 132 266 276 352 11 325 325 335 337 335 326 300 258 235 221 213 204 196 195 195 199 209 220 235 254 270 285 299 309 317 323 324 325 327 330 333 334 334 332 334 330 331 332
359 230 207 312 204 138 164 266 275 34 1 315 327 349 349 351 352 345 314 236 217 209 198 187 187 188 196 209 227 243 257 269 280 296 307 310 313 317 325 332 335 332 333 337 340 337 339 335 333
194 214 237 229 344 71 225 260 284 324 330 305 339 2 15 14 353 359 19 182 188 189 183 176 178 187 196 217 240 256 266 272 290 300 303 305 311 313 317 324 331 332 336 340 348 349 347 345 341
139 181 201 221 51 287 247 268 280 321 17 3 8 20 36 35 3 52 70 104 130 143 157 166 176 188 208 232 251 261 269 278 292 304 300 298 301 303 308 315 322 331 342 346 353 352 349 356 1
180 188 234 274 111 307 323 282 268 275 304 309 305 353 17 62 37 45 70 84 107 133 152 172 193 206 228 251 266 274 286 292 299 293 275 281 291 297 304 310 319 327 336 345 351 4 355 353 8
204 192 184 199 333 114 334 287 211 232 181 233 226 252 306 309 322 5 49 89 144 174 192 208 220 230 245 260 270 277 284 283 272 255 268 280 291 301 299 304 316 326 335 351 359 1 0 352 349
193 175 128 119 88 235 8 280 268 204 227 233 243 281 293 337 347 288 239 225 217 218 224 227 226 235 255 267 270 273 273 269 261 271 280 286 287 285 288 300 312 322 340 358 350 338 344 353 337
211 115 117 109 95 48 276 77 269 128 243 236 216 214 217 291 287 282 268 251 241 237 229 224 236 251 260 266 272 275 270 266 269 274 277 279 272 266 285 299 306 312 311 298 296 301 299 301 304
136 84 61 57 87 337 226 152 256 193 203 186 176 196 268 317 305 290 280 256 243 240 239 244 249 253 253 260 266 267 268 266 267 268 272 270 260 259 278 291 298 305 304 301 298 305 304 299 292
85 119 17 346 15 221 250 154 255 230 208 181 181 269 339 329 332 315 303 269 257 251 253 249 247 248 247 256 260 262 263 262 261 264 265 266 264 273 285 287 289 298 297 297 304 297 291 290 284
185 163 168 204 195 246 47 231 251 213 216 253 241 246 296 332 331 306 295 287 265 263 257 241 239 245 251 255 259 262 264 265 264 262 262 261 272 286 289 287 291 287 291 296 287 286 285 288 295
178 194 135 103 53 46 233 287 285 155 318 331 337 81 342 338 331 314 310 306 282 270 248 241 245 249 253 259 262 269 272 266 262 259 261 270 270 280 278 281 280 282 282 281 286 284 294 302 301
144 160 97 10 154 240 280 279 241 224 222 248 345 308 310 318 337 330 328 318 308 284 262 250 250 255 260 263 269 274 270 264 259 260 257 263 271 273 276 273 276 278 276 281 286 297 307 305 299
140 184 87 117 134 166 229 258 214 205 179 176 216 237 251 283 298 314 334 337 315 294 267 259 261 267 267 263 263 264 268 269 254 253 265 273 274 270 271 273 271 269 278 283 293 302 309 308 309
98 188 164 140 210 170 154 272 255 203 173 163 226 250 233 239 287 310 324 345 358 342 295 273 266 267 267 263 262 261 264 263 254 256 273 278 274 267 266 262 261 268 271 282 277 296 304 313 307